Time,TemperatureF,DewpointF,PressureIn,WindDirection,WindDirectionDegrees,WindSpeedMPH,WindSpeedGustMPH,Humidity,HourlyPrecipIn,Conditions,Clouds,dailyrainin,SolarRadiationWatts/m^2,SoftwareType,DateUTC
2013-07-23 00:05:00,64.2,58.0,29.92,NW,325,1.0,-999.0,81,-99.99,,,0.00,0,weatherlink.com 1.10,2013-07-23 05:05:00,
2013-07-23 00:19:00,64.0,58.0,29.92,NW,326,1.0,-999.0,81,-99.99,,,0.00,0,weatherlink.com 1.10,2013-07-23 05:19:00,
2013-07-23 00:34:00,63.8,58.0,29.91,NW,326,1.0,-999.0,82,-99.99,,,0.00,0,weatherlink.com 1.10,2013-07-23 05:34:00,
2013-07-23 00:49:00,63.2,58.0,29.92,NW,326,0.0,-999.0,84,-99.99,,,0.00,0,weatherlink.com 1.10,2013-07-23 05:49:00,
2013-07-23 01:05:00,62.9,58.0,29.91,NW,326,2.0,-999.0,85,-99.99,,,0.00,0,weatherlink.com 1.10,2013-07-23 06:05:00,
2013-07-23 01:20:00,62.5,58.0,29.91,NNW,329,2.0,-999.0,85,-99.99,,,0.00,0,weatherlink.com 1.10,2013-07-23 06:20:00,
2013-07-23 01:35:00,62.1,57.0,29.92,NNW,329,1.0,-999.0,84,-99.99,,,0.00,0,weatherlink.com 1.10,2013-07-23 06:35:00,
2013-07-23 01:50:00,61.9,57.0,29.93,NNW,329,2.0,-999.0,84,-99.99,,,0.00,0,weatherlink.com 1.10,2013-07-23 06:50:00,
2013-07-23 02:05:00,61.6,57.0,29.92,NNW,329,1.0,-999.0,84,-99.99,,,0.00,0,weatherlink.com 1.10,2013-07-23 07:05:00,
2013-07-23 02:20:00,61.3,57.0,29.93,NNW,329,1.0,-999.0,85,-99.99,,,0.00,0,weatherlink.com 1.10,2013-07-23 07:20:00,
2013-07-23 02:35:00,60.8,57.0,29.93,NNW,329,1.0,-999.0,86,-99.99,,,0.00,0,weatherlink.com 1.10,2013-07-23 07:35:00,
2013-07-23 02:50:00,60.4,57.0,29.93,NNW,329,1.0,-999.0,87,-99.99,,,0.00,0,weatherlink.com 1.10,2013-07-23 07:50:00,
2013-07-23 03:06:00,60.8,57.0,29.93,North,355,3.0,-999.0,86,-99.99,,,0.00,0,weatherlink.com 1.10,2013-07-23 08:06:00,
2013-07-23 03:20:00,61.1,57.0,29.94,North,355,3.0,-999.0,85,-99.99,,,0.00,0,weatherlink.com 1.10,2013-07-23 08:20:00,
2013-07-23 03:35:00,60.9,56.0,29.93,North,5,3.0,-999.0,85,-99.99,,,0.00,0,weatherlink.com 1.10,2013-07-23 08:35:00,
2013-07-23 03:50:00,60.5,56.0,29.94,NNE,14,3.0,-999.0,86,-99.99,,,0.00,0,weatherlink.com 1.10,2013-07-23 08:50:00,
2013-07-23 04:06:00,60.1,56.0,29.95,North,360,2.0,-999.0,86,-99.99,,,0.00,0,weatherlink.com 1.10,2013-07-23 09:06:00,
2013-07-23 04:21:00,59.6,56.0,29.96,North,349,2.0,-999.0,87,-99.99,,,0.00,0,weatherlink.com 1.10,2013-07-23 09:21:00,
2013-07-23 04:36:00,59.3,56.0,29.96,North,350,2.0,-999.0,87,-99.99,,,0.00,0,weatherlink.com 1.10,2013-07-23 09:36:00,
2013-07-23 04:51:00,58.9,55.0,29.96,North,350,1.0,-999.0,87,-99.99,,,0.00,0,weatherlink.com 1.10,2013-07-23 09:51:00,
2013-07-23 05:06:00,58.5,55.0,29.96,North,350,1.0,-999.0,88,-99.99,,,0.00,0,weatherlink.com 1.10,2013-07-23 10:06:00,
2013-07-23 05:22:00,58.3,55.0,29.96,North,350,2.0,-999.0,88,-99.99,,,0.00,0,weatherlink.com 1.10,2013-07-23 10:22:00,
2013-07-23 05:37:00,57.9,55.0,29.97,North,350,1.0,-999.0,89,-99.99,,,0.00,0,weatherlink.com 1.10,2013-07-23 10:37:00,
2013-07-23 05:52:00,57.5,54.0,29.98,North,350,0.0,-999.0,89,-99.99,,,0.00,5,weatherlink.com 1.10,2013-07-23 10:52:00,
2013-07-23 06:07:00,57.1,54.0,29.98,North,350,0.0,-999.0,90,-99.99,,,0.00,9,weatherlink.com 1.10,2013-07-23 11:07:00,
2013-07-23 06:22:00,56.8,54.0,29.98,North,350,0.0,-999.0,91,-99.99,,,0.00,14,weatherlink.com 1.10,2013-07-23 11:22:00,
2013-07-23 06:37:00,57.0,55.0,29.98,North,350,0.0,-999.0,91,-99.99,,,0.00,18,weatherlink.com 1.10,2013-07-23 11:37:00,
2013-07-23 06:53:00,57.5,55.0,30.00,NNW,346,1.0,-999.0,91,-99.99,,,0.00,21,weatherlink.com 1.10,2013-07-23 11:53:00,
2013-07-23 07:08:00,58.3,56.0,30.01,NNW,335,0.0,-999.0,91,-99.99,,,0.00,26,weatherlink.com 1.10,2013-07-23 12:08:00,
2013-07-23 07:23:00,59.0,56.0,30.02,NNW,346,1.0,-999.0,90,-99.99,,,0.00,30,weatherlink.com 1.10,2013-07-23 12:23:00,
2013-07-23 07:38:00,59.6,57.0,30.03,NW,326,2.0,-999.0,90,-99.99,,,0.00,33,weatherlink.com 1.10,2013-07-23 12:38:00,
2013-07-23 07:53:00,60.2,57.0,30.02,NNW,344,4.0,-999.0,89,-99.99,,,0.00,37,weatherlink.com 1.10,2013-07-23 12:53:00,
2013-07-23 08:08:00,61.1,58.0,30.03,NNW,339,2.0,-999.0,89,-99.99,,,0.00,77,weatherlink.com 1.10,2013-07-23 13:08:00,
2013-07-23 08:23:00,61.9,58.0,30.02,North,9,2.0,-999.0,86,-99.99,,,0.00,299,weatherlink.com 1.10,2013-07-23 13:23:00,
2013-07-23 08:37:00,63.0,59.0,30.01,North,5,2.0,-999.0,85,-99.99,,,0.00,385,weatherlink.com 1.10,2013-07-23 13:37:00,
2013-07-23 08:53:00,63.8,58.0,30.01,North,355,2.0,-999.0,82,-99.99,,,0.00,429,weatherlink.com 1.10,2013-07-23 13:53:00,
2013-07-23 09:09:00,64.4,58.0,30.02,NNW,340,4.0,-999.0,80,-99.99,,,0.00,469,weatherlink.com 1.10,2013-07-23 14:09:00,
2013-07-23 09:24:00,65.0,58.0,30.03,NNE,24,2.0,-999.0,77,-99.99,,,0.00,512,weatherlink.com 1.10,2013-07-23 14:24:00,
2013-07-23 09:38:00,66.0,59.0,30.03,NE,39,1.0,-999.0,78,-99.99,,,0.00,554,weatherlink.com 1.10,2013-07-23 14:38:00,
2013-07-23 09:54:00,66.2,58.0,30.03,North,10,6.0,-999.0,74,-99.99,,,0.00,592,weatherlink.com 1.10,2013-07-23 14:54:00,
2013-07-23 10:09:00,66.8,58.0,30.04,North,355,5.0,-999.0,73,-99.99,,,0.00,629,weatherlink.com 1.10,2013-07-23 15:09:00,
2013-07-23 10:24:00,67.4,58.0,30.04,North,5,2.0,-999.0,72,-99.99,,,0.00,664,weatherlink.com 1.10,2013-07-23 15:24:00,
2013-07-23 10:39:00,67.8,58.0,30.05,NNE,15,3.0,-999.0,70,-99.99,,,0.00,698,weatherlink.com 1.10,2013-07-23 15:39:00,
2013-07-23 10:54:00,68.1,59.0,30.05,NW,313,3.0,-999.0,72,-99.99,,,0.00,726,weatherlink.com 1.10,2013-07-23 15:54:00,
2013-07-23 11:09:00,68.5,59.0,30.05,North,5,1.0,-999.0,72,-99.99,,,0.00,752,weatherlink.com 1.10,2013-07-23 16:09:00,
2013-07-23 11:24:00,69.5,60.0,30.05,NW,304,1.0,-999.0,71,-99.99,,,0.00,780,weatherlink.com 1.10,2013-07-23 16:24:00,
2013-07-23 11:39:00,69.5,58.0,30.05,North,349,5.0,-999.0,67,-99.99,,,0.00,803,weatherlink.com 1.10,2013-07-23 16:39:00,
2013-07-23 11:54:00,69.0,58.0,30.05,NNW,342,5.0,-999.0,69,-99.99,,,0.00,828,weatherlink.com 1.10,2013-07-23 16:54:00,
2013-07-23 12:10:00,70.1,58.0,30.05,North,9,4.0,-999.0,65,-99.99,,,0.00,861,weatherlink.com 1.10,2013-07-23 17:10:00,
2013-07-23 12:25:00,70.8,60.0,30.05,North,360,2.0,-999.0,68,-99.99,,,0.00,861,weatherlink.com 1.10,2013-07-23 17:25:00,
2013-07-23 12:40:00,70.8,57.0,30.04,NW,325,5.0,-999.0,63,-99.99,,,0.00,874,weatherlink.com 1.10,2013-07-23 17:40:00,
2013-07-23 12:56:00,70.4,55.0,30.04,North,351,2.0,-999.0,59,-99.99,,,0.00,877,weatherlink.com 1.10,2013-07-23 17:56:00,
2013-07-23 13:11:00,71.4,56.0,30.04,North,9,2.0,-999.0,59,-99.99,,,0.00,884,weatherlink.com 1.10,2013-07-23 18:11:00,
2013-07-23 13:26:00,71.9,57.0,30.04,NNE,17,2.0,-999.0,59,-99.99,,,0.00,886,weatherlink.com 1.10,2013-07-23 18:26:00,
2013-07-23 13:41:00,71.1,55.0,30.04,NNE,24,4.0,-999.0,57,-99.99,,,0.00,884,weatherlink.com 1.10,2013-07-23 18:41:00,
2013-07-23 13:56:00,72.1,56.0,30.04,NNE,15,1.0,-999.0,58,-99.99,,,0.00,874,weatherlink.com 1.10,2013-07-23 18:56:00,
2013-07-23 14:11:00,72.8,58.0,30.04,North,360,2.0,-999.0,60,-99.99,,,0.00,870,weatherlink.com 1.10,2013-07-23 19:11:00,
2013-07-23 14:26:00,72.3,57.0,30.04,NNE,19,2.0,-999.0,59,-99.99,,,0.00,860,weatherlink.com 1.10,2013-07-23 19:26:00,
2013-07-23 15:12:00,73.0,56.0,30.04,NW,326,1.0,-999.0,55,-99.99,,,0.00,805,weatherlink.com 1.10,2013-07-23 20:12:00,
2013-07-23 15:26:00,73.5,57.0,30.04,NNE,31,1.0,-999.0,56,-99.99,,,0.00,777,weatherlink.com 1.10,2013-07-23 20:26:00,
2013-07-23 15:42:00,73.5,59.0,30.04,North,5,2.0,-999.0,60,-99.99,,,0.00,759,weatherlink.com 1.10,2013-07-23 20:42:00,
2013-07-23 16:12:00,73.5,57.0,30.03,North,355,2.0,-999.0,56,-99.99,,,0.00,693,weatherlink.com 1.10,2013-07-23 21:12:00,
2013-07-23 16:42:00,74.2,57.0,30.03,NNW,347,1.0,-999.0,55,-99.99,,,0.00,628,weatherlink.com 1.10,2013-07-23 21:42:00,
2013-07-23 16:57:00,74.6,57.0,30.03,NNW,347,0.0,-999.0,55,-99.99,,,0.00,608,weatherlink.com 1.10,2013-07-23 21:57:00,
2013-07-23 17:42:00,74.4,57.0,30.03,North,5,2.0,-999.0,54,-99.99,,,0.00,552,weatherlink.com 1.10,2013-07-23 22:42:00,
2013-07-23 17:57:00,74.2,56.0,30.03,North,355,1.0,-999.0,54,-99.99,,,0.00,448,weatherlink.com 1.10,2013-07-23 22:57:00,
2013-07-23 18:13:00,73.8,54.0,30.04,NNW,346,2.0,-999.0,50,-99.99,,,0.00,429,weatherlink.com 1.10,2013-07-23 23:13:00,
2013-07-23 18:27:00,74.3,56.0,30.04,NE,35,1.0,-999.0,54,-99.99,,,0.00,345,weatherlink.com 1.10,2013-07-23 23:27:00,
2013-07-23 18:42:00,74.3,56.0,30.03,NE,53,0.0,-999.0,53,-99.99,,,0.00,287,weatherlink.com 1.10,2013-07-23 23:42:00,
2013-07-23 18:58:00,73.5,58.0,30.03,North,355,0.0,-999.0,58,-99.99,,,0.00,81,weatherlink.com 1.10,2013-07-23 23:58:00,
2013-07-23 19:13:00,71.6,58.0,30.03,North,355,0.0,-999.0,62,-99.99,,,0.00,118,weatherlink.com 1.10,2013-07-24 00:13:00,
2013-07-23 19:28:00,72.3,58.0,30.04,North,355,0.0,-999.0,60,-99.99,,,0.00,100,weatherlink.com 1.10,2013-07-24 00:28:00,
2013-07-23 19:43:00,72.1,58.0,30.04,NNE,27,0.0,-999.0,61,-99.99,,,0.00,93,weatherlink.com 1.10,2013-07-24 00:43:00,
2013-07-23 19:58:00,71.4,59.0,30.04,NNE,28,0.0,-999.0,64,-99.99,,,0.00,42,weatherlink.com 1.10,2013-07-24 00:58:00,
2013-07-23 20:28:00,69.6,58.0,30.04,NNE,28,0.0,-999.0,66,-99.99,,,0.00,19,weatherlink.com 1.10,2013-07-24 01:28:00,
2013-07-23 20:43:00,68.4,57.0,30.04,NNE,28,0.0,-999.0,68,-99.99,,,0.00,9,weatherlink.com 1.10,2013-07-24 01:43:00,
2013-07-23 21:13:00,66.1,57.0,30.04,NNE,28,0.0,-999.0,73,-99.99,,,0.00,0,weatherlink.com 1.10,2013-07-24 02:13:00,
2013-07-23 21:28:00,65.3,57.0,30.05,NNE,28,0.0,-999.0,74,-99.99,,,0.00,0,weatherlink.com 1.10,2013-07-24 02:28:00,
2013-07-23 21:44:00,64.7,57.0,30.05,NNE,28,0.0,-999.0,76,-99.99,,,0.00,0,weatherlink.com 1.10,2013-07-24 02:44:00,
2013-07-23 21:59:00,63.9,57.0,30.06,NNE,28,0.0,-999.0,78,-99.99,,,0.00,0,weatherlink.com 1.10,2013-07-24 02:59:00,
2013-07-23 22:14:00,62.7,56.0,30.06,NNE,28,0.0,-999.0,80,-99.99,,,0.00,0,weatherlink.com 1.10,2013-07-24 03:14:00,
2013-07-23 22:29:00,61.8,56.0,30.07,NNE,28,0.0,-999.0,81,-99.99,,,0.00,0,weatherlink.com 1.10,2013-07-24 03:29:00,
2013-07-23 22:44:00,61.2,56.0,30.07,NNE,28,0.0,-999.0,83,-99.99,,,0.00,0,weatherlink.com 1.10,2013-07-24 03:44:00,
2013-07-23 22:59:00,60.5,56.0,30.07,NNE,28,0.0,-999.0,84,-99.99,,,0.00,0,weatherlink.com 1.10,2013-07-24 03:59:00,
2013-07-23 23:14:00,60.3,57.0,30.07,NNE,28,0.0,-999.0,87,-99.99,,,0.00,0,weatherlink.com 1.10,2013-07-24 04:14:00,
2013-07-23 23:29:00,59.7,56.0,30.07,NNE,28,0.0,-999.0,87,-99.99,,,0.00,0,weatherlink.com 1.10,2013-07-24 04:29:00,
2013-07-23 23:44:00,59.2,56.0,30.07,NNE,28,0.0,-999.0,89,-99.99,,,0.00,0,weatherlink.com 1.10,2013-07-24 04:44:00,